Regional Weather Roundup
Issued by NWS Grand Forks, ND

Home | Current Version | Previous Version | Graphics & Text | Print | Product List | Glossary On
Versions: 1 2 3 4 5 6 7 8 9 10 11 12 13 14 15 16 17 18 19 20 21 22 23 24 25 26 27 28 29 30 31 32 33 34 35 36 37 38 39 40 41 42 43 44 45 46 47 48 49 50
000
ASUS43 KFGF 011810
RWRFGF
PRAIRIE TO PINES  WEATHER ROUNDUP
NATIONAL WEATHER SERVICE EASTERN NORTH DAKOTA/GRAND FORKS ND
100 PM CDT WED JUL 01 2015

 **SATELLITE DATA USED TO AUGMENT SKY COVER AT AUTOMATED STATIONS**
 *****  WEATHER ACROSS EASTERN NORTH DAKOTA  *****

CITY           SKY/WX    TMP DP  RH WIND       PRES   REMARKS
GRAND FORKS    FAIR      76  59  55 CALM      29.94F
6HR MIN TEMP:  58; 6HR MAX TEMP:  77;

GRAND FRKS AFB FAIR      76  60  58 VRB2      29.95S
GRAND FRKS NWS   N/A     79 N/A N/A SW2         N/A
DEVILS LAKE    FAIR      72  57  60 S5        29.95F
6HR MIN TEMP:  57; 6HR MAX TEMP:  73; 6HR PCP:  0.26;

FARGO          FAIR      74  61  63 SE10      29.96S
WAHPETON ARPT  FAIR      70  59  68 S10       29.98S
$$

 ***** WEATHER ACROSS CENTRAL AND WESTERN NORTH DAKOTA  *****

CITY           SKY/WX    TMP DP  RH WIND       PRES   REMARKS
BISMARCK       CLOUDY    76  62  62 CALM      29.96S
6HR MIN TEMP:  64; 6HR MAX TEMP:  76;

MINOT          CLOUDY    68  61  78 CALM      29.96S
6HR MIN TEMP:  63; 6HR MAX TEMP:  68;

JAMESTOWN      CLOUDY    73  61  65 E6        29.95S
6HR MIN TEMP:  63; 6HR MAX TEMP:  73;

MINOT AFB      NOT AVBL
GARRISON         N/A     71  63  75 W5        29.97R
WILLISTON      CLOUDY    72  57  59 CALM      29.99F
6HR MIN TEMP:  60; 6HR MAX TEMP:  73;

DICKINSON      CLOUDY    66  59  78 CALM      30.00R HAZE
6HR MIN TEMP:  62; 6HR MAX TEMP:  66;

HETTINGER      CLOUDY    66  61  84 N3        30.01S HAZE
6HR MIN TEMP:  61; 6HR MAX TEMP:  66;

$$

 *****  OTHER AIRPORT OBSERVATIONS IN OUR AREA  *****

CITY           SKY/WX    TMP DP  RH WIND       PRES   REMARKS
WALHALLA       FAIR      75  61  60 MISG      29.95S
GRAFTON AIRPOR FAIR      77  57  50 SW5       29.95F
VALLEY CITY AR FAIR      73  59  60 SE9       29.96F
CANDO          FAIR      72  59  64 SE6       29.96S
CAVALIER APRT  HAZE      77  55  47 S8        29.94F VSB 1/2
GWINNER        NOT AVBL
SHEYENNE NWR     N/A     73  64  72 SE7       29.95S
ROLLA            N/A     68  63  83 S7        29.98S
 ***** THE ABOVE OBSERVATIONS ARE NON NWS ARE NOT QUALITY
       CONTROLLED AND MAY MIS-REPORT RAIN FOR SNOW...
$$

  *****  WEATHER ACROSS NORTHERN MINNESOTA  *****

CITY           SKY/WX    TMP DP  RH WIND       PRES   REMARKS
FLAG ISLAND    FAIR      70  61  73 S7        29.95S
WARROAD        FAIR      73  61  64 E3        29.97R
ROSEAU         FAIR      77  57  50 CALM      29.96S
HALLOCK        NOT AVBL
THF RVR FALLS  FAIR      75  57  53 S3        29.96F
6HR MIN TEMP:  57; 6HR MAX TEMP:  75;

BAUDETTE       FAIR      76  53  44 SW5       29.96S
6HR MIN TEMP:  54; 6HR MAX TEMP:  76;

WASKISH        FAIR      75  61  60 W6        29.97F
CROOKSTON      FAIR      75  61  60 W7        29.96S
$$
  *****  WEATHER ACROSS CENTRAL AND WEST MINNESOTA  *****

CITY           SKY/WX    TMP DP  RH WIND       PRES   REMARKS
FOSSTON        FAIR      73  61  64 W3        29.98S
BEMIDJI        PTSUNNY   76  58  54 CALM      29.97S
PARK RAPIDS    CLOUDY    72  59  63 SW10      29.99S
6HR MIN TEMP:  61; 6HR MAX TEMP:  74;

ELBOW LAKE     FAIR      70  58  67 SE9       29.99S
6HR MIN TEMP:  62; 6HR MAX TEMP:  70;

WADENA         FAIR      70  55  60 S7        30.00S
DETROIT LAKES  FAIR      73  59  60 SW8       30.00S
MOORHEAD       FAIR      73  61  64 SE9       29.97F
FERGUS FALLS   FAIR      70  57  64 S9        29.99S
MORRIS MN      FAIR      72  57  60 S9        29.98S
STAPLES        FAIR      72  48  43 S8        30.01S
$$
  *****  WEATHER ELSEWHERE ACROSS MINNESOTA  *****

CITY           SKY/WX    TMP DP  RH WIND       PRES   REMARKS
DULUTH         FAIR      69  53  56 SW5       30.02S
6HR MIN TEMP:  52; 6HR MAX TEMP:  69;

INTRNTL FALLS  FAIR      73  51  46 CALM      29.97S
ELY            CLOUDY    68  50  52 CALM      30.00S
CLOQUET        FAIR      70  52  52 E3        30.01F
WHEATON        FAIR      66  57  72 SE10G17   29.99S
BRAINERD       PTSUNNY   71  48  43 S6        30.01F
6HR MIN TEMP:  56; 6HR MAX TEMP:  72;

HIBBING        CLOUDY    70  54  56 VRB3      30.00F
6HR MIN TEMP:  46; 6HR MAX TEMP:  70;

ALEXANDRIA     FAIR      69  50  50 SE7       30.02S
6HR MIN TEMP:  61; 6HR MAX TEMP:  69;

SAINT CLOUD    FAIR      69  45  41 SE9       30.02S
6HR MIN TEMP:  58; 6HR MAX TEMP:  69;

MINNEAPOLIS    PTSUNNY   64  51  62 SE5       30.02S
6HR MIN TEMP:  59; 6HR MAX TEMP:  64;

$$

  *****  WEATHER ACROSS SOUTH DAKOTA  *****

CITY           SKY/WX    TMP DP  RH WIND       PRES   REMARKS
SIOUX FALLS    CLOUDY    69  63  81 SE10      29.95R
6HR MIN TEMP:  64; 6HR MAX TEMP:  69; 6HR PCP:  0.05;

BROOKINGS      PTSUNNY   68  59  73 SE14G21   29.97F
WATERTOWN      CLOUDY    67  60  78 SE9       29.97R
6HR MIN TEMP:  63; 6HR MAX TEMP:  67; 6HR PCP:  0.01;

HURON          PTSUNNY   76  66  71 E10       29.90F
6HR MIN TEMP:  65; 6HR MAX TEMP:  76; 6HR PCP: TRACE;

SISSETON         N/A     70  61  73 SE12      29.96S
ABERDEEN       PTSUNNY   75  64  68 SE8       29.93S
6HR MIN TEMP:  66; 6HR MAX TEMP:  75;

MITCHELL       CLOUDY    75  66  73 SE10      29.92R
PIERRE         CLOUDY    77  64  64 CALM      29.90R
6HR MIN TEMP:  63; 6HR MAX TEMP:  77;

MOBRIDGE       CLOUDY    75  65  70 SW5       29.92R
RAPID CITY     SUNNY     80  59  48 N23G31    29.99S HAZE
6HR MIN TEMP:  66; 6HR MAX TEMP:  81;

$$

  *****  SOME WEATHER IN NEARBY STATES *****

CITY           SKY/WX    TMP DP  RH WIND       PRES   REMARKS
GLASGOW MT     MOSUNNY   75  60  59 VRB5      30.00S HAZE
6HR MIN TEMP:  61; 6HR MAX TEMP:  75;

GREAT FALLS MT SUNNY     85  49  28 NW10      30.04F
6HR MIN TEMP:  55; 6HR MAX TEMP:  85;

CHEYENNE WY    SUNNY     81  54  39 VRB5      30.21S
6HR MIN TEMP:  63; 6HR MAX TEMP:  81;

SCOTTSBLUFF NE SUNNY     91  47  21 E3        30.04S
6HR MIN TEMP:  62; 6HR MAX TEMP:  92;

OMAHA NE       FAIR      81  69  67 SE13      29.87F
6HR MIN TEMP:  68; 6HR MAX TEMP:  81;

DES MOINES IA  CLOUDY    75  63  66 E7        29.92R
6HR MIN TEMP:  68; 6HR MAX TEMP:  75; 6HR PCP: TRACE;

DAVENPORT IA   PTSUNNY   69  60  73 NE9       29.96F
6HR MIN TEMP:  61; 6HR MAX TEMP:  69;

CHICAGO IL     CLOUDY    69  54  58 NE8       29.96F
6HR MIN TEMP:  56; 6HR MAX TEMP:  69;

EAU CLAIRE WI  FAIR      67  45  45 MISG      30.01F
6HR MIN TEMP:  50; 6HR MAX TEMP:  69;

LA CROSSE WI   FAIR      69  49  48 CALM      30.00F
6HR MIN TEMP:  56; 6HR MAX TEMP:  69;

$$

  *****  SOME NATIONAL WEATHER *****

CITY           SKY/WX    TMP DP  RH WIND       PRES   REMARKS
LA GUARDIA NY  PTSUNNY   81  60  48 SW14G21   29.77F
6HR MIN TEMP:  72; 6HR MAX TEMP:  81;

RALEIGH NC     PTSUNNY   86  69  56 VRB7      29.96F HX  90
6HR MIN TEMP:  70; 6HR MAX TEMP:  87;

ATLANTA GA     PTSUNNY   81  67  62 SW8       30.08F
6HR MIN TEMP:  72; 6HR MAX TEMP:  81;

NEW ORLEANS LA PTSUNNY   89  75  63 S9        30.10F HX  99
6HR MIN TEMP:  75; 6HR MAX TEMP:  90;

OKLAHOMA CITY  PTSUNNY   92  70  48 SW18G24   29.91F HX  97
6HR MIN TEMP:  72; 6HR MAX TEMP:  93;

ALBUQUERQUE NM MOSUNNY   83  48  29 S5        30.15F
6HR MIN TEMP:  71; 6HR MAX TEMP:  85;

SALT LAKE CITY MOSUNNY   91  53  27 NW7       30.08S
6HR MIN TEMP:  75; 6HR MAX TEMP:  92;

LOS ANGELES CA CLOUDY    70  63  78 W9        29.94S
6HR MIN TEMP:  67; 6HR MAX TEMP:  72; 6HR PCP: TRACE;

BOISE ID       SUNNY     90  53  28 NW8       30.02S


USA.gov is the U.S. government's official web portal to all federal, state and local government web resources and services.